User: anonymous   Login
Location: Oshawa
(43.9000°N, 78.8670°W)
Time: 14:48:32
(UTC-04:00)
Language:

Iridium 46 - Orbit

View from above orbital plane
View from above orbital plane
View from above satellite
View from above satellite

Ground track
Ground track

The orbit data is extracted from the following two-line orbital elements,

1 24905U 97043C   18174.83227211  .00036032 -73241-6  24856-3 0  9996
2 24905  86.3873  91.1201 0277494 233.2917 124.2557 15.37180749 92339
Epoch (UTC): 23 June 2018 19:58:28
Eccentricity: 0.0277494
inclination: 86.3873°
perigee height: 265 km
apogee height: 644 km
right ascension of ascending node: 91.1201°
argument of perigee: 233.2917°
revolutions per day: 15.37180749
mean anomaly at epoch: 124.2557°
orbit number at epoch: 9233

The dashed part of the orbit path shows where the satellite is in the earth's shadow,  

DLR